Time,TemperatureF,DewpointF,PressureIn,WindDirection,WindDirectionDegrees,WindSpeedMPH,WindSpeedGustMPH,Humidity,HourlyPrecipIn,Conditions,Clouds,dailyrainin,SoftwareType,DateUTC
2013-01-04 00:00:00,27.1,25.3,30.33,West,271,0.0,0.0,93,0.00,,,0.00,Wunderground v.1.15,2013-01-04 05:00:00,
2013-01-04 00:05:00,27.0,25.2,30.33,West,271,0.0,0.0,93,0.00,,,0.00,Wunderground v.1.15,2013-01-04 05:05:00,
2013-01-04 00:10:00,27.0,25.2,30.33,West,271,0.0,0.0,93,0.00,,,0.00,Wunderground v.1.15,2013-01-04 05:10:00,
2013-01-04 00:15:00,26.9,25.1,30.33,West,271,0.0,0.0,93,0.00,,,0.00,Wunderground v.1.15,2013-01-04 05:15:00,
2013-01-04 00:20:00,26.8,25.0,30.32,West,271,0.0,0.0,93,0.00,,,0.00,Wunderground v.1.15,2013-01-04 05:20:00,
2013-01-04 00:25:00,26.6,24.8,30.32,West,271,0.0,0.0,93,0.00,,,0.00,Wunderground v.1.15,2013-01-04 05:25:00,
2013-01-04 00:30:00,26.6,24.8,30.32,West,271,0.0,0.0,93,0.00,,,0.00,Wunderground v.1.15,2013-01-04 05:30:00,
2013-01-04 00:35:00,26.6,24.8,30.32,West,271,0.0,0.0,93,0.00,,,0.00,Wunderground v.1.15,2013-01-04 05:35:00,
2013-01-04 00:40:00,26.6,24.8,30.32,West,271,0.0,0.0,93,0.00,,,0.00,Wunderground v.1.15,2013-01-04 05:40:00,
2013-01-04 00:45:00,26.6,24.8,30.32,West,271,0.0,0.0,93,0.00,,,0.00,Wunderground v.1.15,2013-01-04 05:45:00,
2013-01-04 00:50:00,26.7,24.9,30.32,West,271,0.0,0.0,93,0.00,,,0.00,Wunderground v.1.15,2013-01-04 05:50:00,
2013-01-04 00:55:00,26.7,24.9,30.31,West,271,0.0,0.0,93,0.00,,,0.00,Wunderground v.1.15,2013-01-04 05:55:00,
2013-01-04 01:00:00,26.8,25.0,30.31,West,271,0.0,0.0,93,0.00,,,0.00,Wunderground v.1.15,2013-01-04 06:00:00,
2013-01-04 01:05:00,26.6,24.6,30.31,West,271,0.0,0.0,92,0.00,,,0.00,Wunderground v.1.15,2013-01-04 06:05:00,
2013-01-04 01:10:00,26.5,24.8,30.32,West,271,0.0,0.0,93,0.00,,,0.00,Wunderground v.1.15,2013-01-04 06:10:00,
2013-01-04 01:15:00,26.5,24.8,30.32,West,271,0.0,0.0,93,0.00,,,0.00,Wunderground v.1.15,2013-01-04 06:15:00,
2013-01-04 01:20:00,26.5,24.8,30.32,West,271,0.0,0.0,93,0.00,,,0.00,Wunderground v.1.15,2013-01-04 06:20:00,
2013-01-04 01:25:00,26.4,24.7,30.32,West,271,0.0,0.0,93,0.00,,,0.00,Wunderground v.1.15,2013-01-04 06:25:00,
2013-01-04 01:30:00,26.3,24.6,30.32,West,271,0.0,0.0,93,0.00,,,0.00,Wunderground v.1.15,2013-01-04 06:30:00,
2013-01-04 01:35:00,26.3,24.6,30.31,West,271,0.0,0.0,93,0.00,,,0.00,Wunderground v.1.15,2013-01-04 06:35:00,
2013-01-04 01:45:00,26.2,24.5,30.31,West,271,0.0,0.0,93,0.00,,,0.00,Wunderground v.1.15,2013-01-04 06:45:00,
2013-01-04 01:50:00,26.2,24.5,30.31,West,271,0.0,0.0,93,0.00,,,0.00,Wunderground v.1.15,2013-01-04 06:50:00,
2013-01-04 01:55:00,26.2,24.7,30.32,West,271,0.0,0.0,94,0.00,,,0.00,Wunderground v.1.15,2013-01-04 06:55:00,
2013-01-04 02:00:00,26.2,24.7,30.32,West,271,0.0,0.0,94,0.00,,,0.00,Wunderground v.1.15,2013-01-04 07:00:00,
2013-01-04 02:05:00,26.2,24.7,30.31,West,271,0.0,0.0,94,0.00,,,0.00,Wunderground v.1.15,2013-01-04 07:05:00,
2013-01-04 02:10:00,26.1,24.6,30.31,West,271,0.0,0.0,94,0.00,,,0.00,Wunderground v.1.15,2013-01-04 07:10:00,
2013-01-04 02:15:00,26.0,24.5,30.32,West,271,0.0,0.0,94,0.00,,,0.00,Wunderground v.1.15,2013-01-04 07:15:00,
2013-01-04 02:20:00,25.8,24.1,30.32,West,271,0.0,0.0,93,0.00,,,0.00,Wunderground v.1.15,2013-01-04 07:20:00,
2013-01-04 02:25:00,25.7,24.2,30.32,West,271,0.0,0.0,94,0.00,,,0.00,Wunderground v.1.15,2013-01-04 07:25:00,
2013-01-04 02:30:00,25.6,24.1,30.32,West,271,0.0,0.0,94,0.00,,,0.00,Wunderground v.1.15,2013-01-04 07:30:00,
2013-01-04 02:40:00,25.3,23.6,30.32,West,271,0.0,0.0,93,0.00,,,0.00,Wunderground v.1.15,2013-01-04 07:40:00,
2013-01-04 02:45:00,25.2,23.7,30.32,West,271,0.0,0.0,94,0.00,,,0.00,Wunderground v.1.15,2013-01-04 07:45:00,
2013-01-04 02:50:00,25.0,23.3,30.32,West,271,0.0,0.0,93,0.00,,,0.00,Wunderground v.1.15,2013-01-04 07:50:00,
2013-01-04 02:55:00,24.8,23.1,30.32,West,271,0.0,0.0,93,0.00,,,0.00,Wunderground v.1.15,2013-01-04 07:55:00,
2013-01-04 03:00:00,24.6,23.1,30.32,West,271,0.0,0.0,94,0.00,,,0.00,Wunderground v.1.15,2013-01-04 08:00:00,
2013-01-04 03:06:00,24.6,23.1,30.31,West,271,0.0,0.0,94,0.00,,,0.00,Wunderground v.1.15,2013-01-04 08:06:00,
2013-01-04 03:10:00,24.6,23.1,30.31,West,271,0.0,0.0,94,0.00,,,0.00,Wunderground v.1.15,2013-01-04 08:10:00,
2013-01-04 03:15:00,24.6,23.1,30.31,West,271,0.0,0.0,94,0.00,,,0.00,Wunderground v.1.15,2013-01-04 08:15:00,
2013-01-04 03:20:00,24.7,23.5,30.32,West,271,0.0,0.0,95,0.00,,,0.00,Wunderground v.1.15,2013-01-04 08:20:00,
2013-01-04 03:25:00,24.8,23.6,30.31,West,271,0.0,0.0,95,0.00,,,0.00,Wunderground v.1.15,2013-01-04 08:25:00,
2013-01-04 03:30:00,25.0,23.8,30.31,West,271,0.0,0.0,95,0.00,,,0.00,Wunderground v.1.15,2013-01-04 08:30:00,
2013-01-04 03:35:00,25.1,23.9,30.31,West,271,0.0,0.0,95,0.00,,,0.00,Wunderground v.1.15,2013-01-04 08:35:00,
2013-01-04 03:40:00,25.1,23.9,30.31,West,271,0.0,0.0,95,0.00,,,0.00,Wunderground v.1.15,2013-01-04 08:40:00,
2013-01-04 03:45:00,25.0,23.5,30.31,West,271,0.0,0.0,94,0.00,,,0.00,Wunderground v.1.15,2013-01-04 08:45:00,
2013-01-04 03:50:00,24.9,23.4,30.31,West,271,0.0,0.0,94,0.00,,,0.00,Wunderground v.1.15,2013-01-04 08:50:00,
2013-01-04 03:55:00,24.7,23.0,30.31,West,271,0.0,0.0,93,0.00,,,0.00,Wunderground v.1.15,2013-01-04 08:55:00,
2013-01-04 04:00:00,24.5,23.0,30.31,West,271,0.0,0.0,94,0.00,,,0.00,Wunderground v.1.15,2013-01-04 09:00:00,
2013-01-04 04:05:00,24.4,22.9,30.31,West,271,0.0,0.0,94,0.00,,,0.00,Wunderground v.1.15,2013-01-04 09:05:00,
2013-01-04 04:10:00,24.3,22.8,30.31,West,271,0.0,0.0,94,0.00,,,0.00,Wunderground v.1.15,2013-01-04 09:10:00,
2013-01-04 04:15:00,24.3,22.8,30.31,West,271,0.0,0.0,94,0.00,,,0.00,Wunderground v.1.15,2013-01-04 09:15:00,
2013-01-04 04:20:00,24.3,22.8,30.31,West,271,0.0,0.0,94,0.00,,,0.00,Wunderground v.1.15,2013-01-04 09:20:00,
2013-01-04 04:25:00,24.2,22.7,30.31,West,271,0.0,0.0,94,0.00,,,0.00,Wunderground v.1.15,2013-01-04 09:25:00,
2013-01-04 04:30:00,24.1,22.6,30.31,West,271,0.0,0.0,94,0.00,,,0.00,Wunderground v.1.15,2013-01-04 09:30:00,
2013-01-04 04:35:00,24.0,22.5,30.31,West,271,0.0,0.0,94,0.00,,,0.00,Wunderground v.1.15,2013-01-04 09:35:00,
2013-01-04 04:40:00,24.0,22.5,30.31,West,271,0.0,0.0,94,0.00,,,0.00,Wunderground v.1.15,2013-01-04 09:40:00,
2013-01-04 04:45:00,24.0,22.5,30.31,West,271,0.0,0.0,94,0.00,,,0.00,Wunderground v.1.15,2013-01-04 09:45:00,
2013-01-04 04:50:00,24.0,22.5,30.31,West,271,0.0,0.0,94,0.00,,,0.00,Wunderground v.1.15,2013-01-04 09:50:00,
2013-01-04 04:55:00,24.0,22.5,30.31,West,271,0.0,0.0,94,0.00,,,0.00,Wunderground v.1.15,2013-01-04 09:55:00,
2013-01-04 05:00:00,23.9,22.4,30.31,West,271,0.0,0.0,94,0.00,,,0.00,Wunderground v.1.15,2013-01-04 10:00:00,
2013-01-04 05:05:00,23.9,22.4,30.32,West,271,0.0,0.0,94,0.00,,,0.00,Wunderground v.1.15,2013-01-04 10:05:00,
2013-01-04 05:10:00,23.9,22.4,30.32,West,271,0.0,0.0,94,0.00,,,0.00,Wunderground v.1.15,2013-01-04 10:10:00,
2013-01-04 05:15:00,23.9,22.4,30.31,West,271,0.0,0.0,94,0.00,,,0.00,Wunderground v.1.15,2013-01-04 10:15:00,
2013-01-04 05:20:00,23.8,22.3,30.31,West,271,0.0,0.0,94,0.00,,,0.00,Wunderground v.1.15,2013-01-04 10:20:00,
2013-01-04 05:25:00,23.7,22.0,30.31,West,271,0.0,0.0,93,0.00,,,0.00,Wunderground v.1.15,2013-01-04 10:25:00,
2013-01-04 05:30:00,23.8,22.3,30.32,West,271,0.0,0.0,94,0.00,,,0.00,Wunderground v.1.15,2013-01-04 10:30:00,
2013-01-04 05:35:00,23.9,22.4,30.32,West,271,0.0,0.0,94,0.00,,,0.00,Wunderground v.1.15,2013-01-04 10:35:00,
2013-01-04 05:40:00,24.0,22.5,30.32,West,271,0.0,0.0,94,0.00,,,0.00,Wunderground v.1.15,2013-01-04 10:40:00,
2013-01-04 05:45:00,24.1,22.4,30.32,West,271,0.0,0.0,93,0.00,,,0.00,Wunderground v.1.15,2013-01-04 10:45:00,
2013-01-04 05:50:00,24.0,22.3,30.32,West,271,0.0,0.0,93,0.00,,,0.00,Wunderground v.1.15,2013-01-04 10:50:00,
2013-01-04 05:55:00,23.9,22.2,30.33,West,271,0.0,0.0,93,0.00,,,0.00,Wunderground v.1.15,2013-01-04 10:55:00,
2013-01-04 06:00:00,23.8,22.1,30.33,West,271,0.0,0.0,93,0.00,,,0.00,Wunderground v.1.15,2013-01-04 11:00:00,
2013-01-04 06:05:00,23.7,22.0,30.32,West,271,0.0,0.0,93,0.00,,,0.00,Wunderground v.1.15,2013-01-04 11:05:00,
2013-01-04 06:10:00,23.6,21.9,30.32,West,271,0.0,0.0,93,0.00,,,0.00,Wunderground v.1.15,2013-01-04 11:10:00,
2013-01-04 06:15:00,23.6,21.9,30.33,West,271,0.0,0.0,93,0.00,,,0.00,Wunderground v.1.15,2013-01-04 11:15:00,
2013-01-04 06:20:00,23.5,21.8,30.33,West,271,0.0,0.0,93,0.00,,,0.00,Wunderground v.1.15,2013-01-04 11:20:00,
2013-01-04 06:25:00,23.4,21.7,30.34,West,271,0.0,0.0,93,0.00,,,0.00,Wunderground v.1.15,2013-01-04 11:25:00,
2013-01-04 06:30:00,23.4,21.7,30.33,West,271,0.0,0.0,93,0.00,,,0.00,Wunderground v.1.15,2013-01-04 11:30:00,
2013-01-04 06:35:00,23.3,21.8,30.33,West,271,0.0,0.0,94,0.00,,,0.00,Wunderground v.1.15,2013-01-04 11:35:00,
2013-01-04 06:40:00,23.2,21.5,30.34,West,271,0.0,0.0,93,0.00,,,0.00,Wunderground v.1.15,2013-01-04 11:40:00,
2013-01-04 06:50:00,23.0,21.3,30.34,West,271,0.0,0.0,93,0.00,,,0.00,Wunderground v.1.15,2013-01-04 11:50:00,
2013-01-04 06:55:00,22.9,21.4,30.34,West,271,0.0,0.0,94,0.00,,,0.00,Wunderground v.1.15,2013-01-04 11:55:00,
2013-01-04 07:00:00,22.9,21.4,30.34,West,271,0.0,0.0,94,0.00,,,0.00,Wunderground v.1.15,2013-01-04 12:00:00,
2013-01-04 07:05:00,23.0,21.5,30.33,West,271,0.0,0.0,94,0.00,,,0.00,Wunderground v.1.15,2013-01-04 12:05:00,
2013-01-04 07:10:00,22.9,21.4,30.33,West,271,0.0,0.0,94,0.00,,,0.00,Wunderground v.1.15,2013-01-04 12:10:00,
2013-01-04 07:15:00,22.9,21.4,30.34,West,271,0.0,0.0,94,0.00,,,0.00,Wunderground v.1.15,2013-01-04 12:15:00,
2013-01-04 07:20:00,22.8,21.3,30.34,West,271,0.0,0.0,94,0.00,,,0.00,Wunderground v.1.15,2013-01-04 12:20:00,
2013-01-04 07:25:00,22.8,21.3,30.35,West,271,0.0,0.0,94,0.00,,,0.00,Wunderground v.1.15,2013-01-04 12:25:00,
2013-01-04 07:35:00,22.8,21.3,30.36,West,271,0.0,0.0,94,0.00,,,0.00,Wunderground v.1.15,2013-01-04 12:35:00,
2013-01-04 07:40:00,22.7,21.2,30.36,West,271,0.0,0.0,94,0.00,,,0.00,Wunderground v.1.15,2013-01-04 12:40:00,
2013-01-04 07:45:00,22.6,21.1,30.37,West,271,0.0,0.0,94,0.00,,,0.00,Wunderground v.1.15,2013-01-04 12:45:00,
2013-01-04 07:50:00,22.6,21.1,30.37,West,271,0.0,0.0,94,0.00,,,0.00,Wunderground v.1.15,2013-01-04 12:50:00,
2013-01-04 07:55:00,22.5,21.0,30.37,West,271,0.0,0.0,94,0.00,,,0.00,Wunderground v.1.15,2013-01-04 12:55:00,
2013-01-04 08:00:00,22.4,20.9,30.37,West,271,0.0,0.0,94,0.00,,,0.00,Wunderground v.1.15,2013-01-04 13:00:00,
2013-01-04 08:05:00,22.4,20.9,30.37,West,271,0.0,0.0,94,0.00,,,0.00,Wunderground v.1.15,2013-01-04 13:05:00,
2013-01-04 08:10:00,22.7,21.5,30.38,West,271,0.0,0.0,95,0.00,,,0.00,Wunderground v.1.15,2013-01-04 13:10:00,
2013-01-04 08:15:00,23.1,21.9,30.37,West,271,0.0,0.0,95,0.00,,,0.00,Wunderground v.1.15,2013-01-04 13:15:00,
2013-01-04 08:20:00,23.5,22.3,30.38,West,271,0.0,0.0,95,0.00,,,0.00,Wunderground v.1.15,2013-01-04 13:20:00,
2013-01-04 08:25:00,23.9,22.7,30.38,West,271,0.0,0.0,95,0.00,,,0.00,Wunderground v.1.15,2013-01-04 13:25:00,
2013-01-04 08:30:00,24.1,22.9,30.38,West,271,0.0,0.0,95,0.00,,,0.00,Wunderground v.1.15,2013-01-04 13:30:00,
2013-01-04 08:35:00,24.5,23.3,30.38,West,271,0.0,0.0,95,0.00,,,0.00,Wunderground v.1.15,2013-01-04 13:35:00,
2013-01-04 08:40:00,24.9,23.7,30.38,West,271,0.0,0.0,95,0.00,,,0.00,Wunderground v.1.15,2013-01-04 13:40:00,
2013-01-04 08:45:00,25.3,24.1,30.38,West,271,0.0,0.0,95,0.00,,,0.00,Wunderground v.1.15,2013-01-04 13:45:00,
2013-01-04 08:50:00,25.7,24.2,30.39,West,271,0.0,0.0,94,0.00,,,0.00,Wunderground v.1.15,2013-01-04 13:50:00,
2013-01-04 08:55:00,25.9,24.2,30.38,West,271,0.0,1.0,93,0.00,,,0.00,Wunderground v.1.15,2013-01-04 13:55:00,
2013-01-04 09:00:00,25.8,23.8,30.38,West,271,1.0,1.0,92,0.00,,,0.00,Wunderground v.1.15,2013-01-04 14:00:00,
2013-01-04 09:05:00,25.8,23.5,30.38,West,271,1.0,1.0,91,0.00,,,0.00,Wunderground v.1.15,2013-01-04 14:05:00,
2013-01-04 09:10:00,26.0,24.0,30.38,West,271,0.0,0.0,92,0.00,,,0.00,Wunderground v.1.15,2013-01-04 14:10:00,
2013-01-04 09:15:00,26.0,23.7,30.38,West,271,0.0,0.0,91,0.00,,,0.00,Wunderground v.1.15,2013-01-04 14:15:00,
2013-01-04 09:20:00,25.8,23.5,30.38,West,271,0.0,0.0,91,0.00,,,0.00,Wunderground v.1.15,2013-01-04 14:20:00,
2013-01-04 09:25:00,25.7,23.7,30.38,West,271,0.0,0.0,92,0.00,,,0.00,Wunderground v.1.15,2013-01-04 14:25:00,
2013-01-04 09:30:00,26.1,24.4,30.38,SW,226,0.0,1.0,93,0.00,,,0.00,Wunderground v.1.15,2013-01-04 14:30:00,
2013-01-04 09:35:00,26.9,25.1,30.38,SW,218,1.0,1.0,93,0.00,,,0.00,Wunderground v.1.15,2013-01-04 14:35:00,
2013-01-04 09:40:00,27.4,25.4,30.39,SW,218,1.0,1.0,92,0.00,,,0.00,Wunderground v.1.15,2013-01-04 14:40:00,
2013-01-04 09:45:00,27.2,24.7,30.39,SW,218,1.0,1.0,90,0.00,,,0.00,Wunderground v.1.15,2013-01-04 14:45:00,
2013-01-04 09:50:00,27.1,24.8,30.39,SW,218,1.0,1.0,91,0.00,,,0.00,Wunderground v.1.15,2013-01-04 14:50:00,
2013-01-04 09:55:00,27.7,25.7,30.39,SW,219,1.0,1.0,92,0.00,,,0.00,Wunderground v.1.15,2013-01-04 14:55:00,
2013-01-04 10:00:00,28.5,27.0,30.40,SW,219,0.0,0.0,94,0.00,,,0.00,Wunderground v.1.15,2013-01-04 15:00:00,
2013-01-04 10:05:00,29.0,27.0,30.40,SW,219,0.0,0.0,92,0.00,,,0.00,Wunderground v.1.15,2013-01-04 15:05:00,
2013-01-04 10:10:00,29.2,26.9,30.40,SW,219,1.0,1.0,91,0.00,,,0.00,Wunderground v.1.15,2013-01-04 15:10:00,
2013-01-04 10:15:00,29.4,27.1,30.40,SW,220,1.0,1.0,91,0.00,,,0.00,Wunderground v.1.15,2013-01-04 15:15:00,
2013-01-04 10:20:00,29.5,26.9,30.40,SW,220,1.0,1.0,90,0.00,,,0.00,Wunderground v.1.15,2013-01-04 15:20:00,
2013-01-04 10:25:00,29.9,27.3,30.40,SW,220,1.0,2.0,90,0.00,,,0.00,Wunderground v.1.15,2013-01-04 15:25:00,
2013-01-04 10:30:00,30.3,27.4,30.40,SW,219,1.0,2.0,89,0.00,,,0.00,Wunderground v.1.15,2013-01-04 15:30:00,
2013-01-04 10:35:00,30.5,26.8,30.39,SW,221,1.0,2.0,86,0.00,,,0.00,Wunderground v.1.15,2013-01-04 15:35:00,
2013-01-04 10:40:00,31.0,27.3,30.39,SW,221,1.0,1.0,86,0.00,,,0.00,Wunderground v.1.15,2013-01-04 15:40:00,
2013-01-04 10:45:00,31.5,27.5,30.40,SW,221,1.0,2.0,85,0.00,,,0.00,Wunderground v.1.15,2013-01-04 15:45:00,
2013-01-04 10:50:00,31.9,27.6,30.40,SW,223,1.0,2.0,84,0.00,,,0.00,Wunderground v.1.15,2013-01-04 15:50:00,
2013-01-04 10:55:00,32.2,28.5,30.40,SW,223,2.0,2.0,86,0.00,,,0.00,Wunderground v.1.15,2013-01-04 15:55:00,
2013-01-04 11:05:00,33.5,29.2,30.40,SW,227,1.0,2.0,84,0.00,,,0.00,Wunderground v.1.15,2013-01-04 16:05:00,
2013-01-04 11:10:00,34.1,30.1,30.39,SW,227,1.0,1.0,85,0.00,,,0.00,Wunderground v.1.15,2013-01-04 16:10:00,
2013-01-04 11:15:00,34.4,30.1,30.39,SW,229,1.0,1.0,84,0.00,,,0.00,Wunderground v.1.15,2013-01-04 16:15:00,
2013-01-04 11:20:00,35.1,31.0,30.38,SW,229,1.0,1.0,85,0.00,,,0.00,Wunderground v.1.15,2013-01-04 16:20:00,
2013-01-04 11:25:00,35.4,29.8,30.38,SW,236,1.0,3.0,80,0.00,,,0.00,Wunderground v.1.15,2013-01-04 16:25:00,
2013-01-04 11:30:00,35.5,29.9,30.38,SW,236,2.0,2.0,80,0.00,,,0.00,Wunderground v.1.15,2013-01-04 16:30:00,
2013-01-04 11:35:00,36.1,32.3,30.38,WSW,237,1.0,2.0,86,0.00,,,0.00,Wunderground v.1.15,2013-01-04 16:35:00,
2013-01-04 11:40:00,36.7,31.1,30.38,WSW,246,1.0,5.0,80,0.00,,,0.00,Wunderground v.1.15,2013-01-04 16:40:00,
2013-01-04 11:45:00,36.7,30.8,30.37,WSW,249,2.0,5.0,79,0.00,,,0.00,Wunderground v.1.15,2013-01-04 16:45:00,
2013-01-04 11:50:00,36.8,30.6,30.37,WSW,252,2.0,2.0,78,0.00,,,0.00,Wunderground v.1.15,2013-01-04 16:50:00,
2013-01-04 11:55:00,37.1,29.6,30.36,WNW,294,2.0,4.0,74,0.00,,,0.00,Wunderground v.1.15,2013-01-04 16:55:00,
2013-01-04 12:00:00,37.2,30.3,30.36,West,281,2.0,2.0,76,0.00,,,0.00,Wunderground v.1.15,2013-01-04 17:00:00,
2013-01-04 12:05:00,38.0,31.4,30.36,West,277,2.0,3.0,77,0.00,,,0.00,Wunderground v.1.15,2013-01-04 17:05:00,
2013-01-04 12:10:00,38.3,31.7,30.36,West,275,1.0,1.0,77,0.00,,,0.00,Wunderground v.1.15,2013-01-04 17:10:00,
2013-01-04 12:15:00,39.2,32.9,30.36,West,275,1.0,1.0,78,0.00,,,0.00,Wunderground v.1.15,2013-01-04 17:15:00,
2013-01-04 12:20:00,40.2,33.2,30.36,West,275,0.0,2.0,76,0.00,,,0.00,Wunderground v.1.15,2013-01-04 17:20:00,
2013-01-04 12:25:00,41.0,33.7,30.35,West,272,0.0,2.0,75,0.00,,,0.00,Wunderground v.1.15,2013-01-04 17:25:00,
2013-01-04 12:30:00,41.9,33.5,30.36,West,272,0.0,0.0,72,0.00,,,0.00,Wunderground v.1.15,2013-01-04 17:30:00,
2013-01-04 12:35:00,42.6,33.1,30.36,West,281,0.0,0.0,69,0.00,,,0.00,Wunderground v.1.15,2013-01-04 17:35:00,
2013-01-04 12:40:00,43.3,33.4,30.36,West,280,0.0,0.0,68,0.00,,,0.00,Wunderground v.1.15,2013-01-04 17:40:00,
2013-01-04 12:50:00,44.3,32.5,30.36,WNW,298,0.0,0.0,63,0.00,,,0.00,Wunderground v.1.15,2013-01-04 17:50:00,
2013-01-04 12:55:00,44.5,31.5,30.35,WNW,298,1.0,1.0,60,0.00,,,0.00,Wunderground v.1.15,2013-01-04 17:55:00,
2013-01-04 13:00:00,44.9,33.5,30.34,WNW,297,0.0,0.0,64,0.00,,,0.00,Wunderground v.1.15,2013-01-04 18:00:00,
2013-01-04 13:05:00,45.4,31.9,30.34,WNW,298,0.0,0.0,59,0.00,,,0.00,Wunderground v.1.15,2013-01-04 18:05:00,
2013-01-04 13:10:00,45.6,31.7,30.34,West,271,0.0,0.0,58,0.00,,,0.00,Wunderground v.1.15,2013-01-04 18:10:00,
2013-01-04 13:15:00,45.5,31.6,30.33,NE,44,1.0,1.0,58,0.00,,,0.00,Wunderground v.1.15,2013-01-04 18:15:00,
2013-01-04 13:20:00,44.9,29.7,30.33,West,262,2.0,2.0,55,0.00,,,0.00,Wunderground v.1.15,2013-01-04 18:20:00,
2013-01-04 13:25:00,44.9,29.7,30.33,West,268,1.0,5.0,55,0.00,,,0.00,Wunderground v.1.15,2013-01-04 18:25:00,
2013-01-04 13:30:00,44.9,27.4,30.33,WSW,252,1.0,4.0,50,0.00,,,0.00,Wunderground v.1.15,2013-01-04 18:30:00,
2013-01-04 13:35:00,44.8,29.2,30.32,WSW,253,1.0,4.0,54,0.00,,,0.00,Wunderground v.1.15,2013-01-04 18:35:00,
2013-01-04 13:40:00,45.5,27.9,30.32,West,265,1.0,1.0,50,0.00,,,0.00,Wunderground v.1.15,2013-01-04 18:40:00,
2013-01-04 13:45:00,45.8,28.2,30.31,West,264,1.0,1.0,50,0.00,,,0.00,Wunderground v.1.15,2013-01-04 18:45:00,
2013-01-04 13:50:00,45.8,25.6,30.31,West,267,1.0,2.0,45,0.00,,,0.00,Wunderground v.1.15,2013-01-04 18:50:00,
2013-01-04 13:55:00,45.8,27.7,30.31,West,281,2.0,2.0,49,0.00,,,0.00,Wunderground v.1.15,2013-01-04 18:55:00,
2013-01-04 14:00:00,46.4,28.3,30.31,West,281,1.0,1.0,49,0.00,,,0.00,Wunderground v.1.15,2013-01-04 19:00:00,
2013-01-04 14:05:00,46.9,26.1,30.31,West,281,1.0,1.0,44,0.00,,,0.00,Wunderground v.1.15,2013-01-04 19:05:00,
2013-01-04 14:10:00,47.3,27.0,30.31,WNW,296,1.0,1.0,45,0.00,,,0.00,Wunderground v.1.15,2013-01-04 19:10:00,
2013-01-04 14:15:00,47.8,27.5,30.30,WNW,295,1.0,1.0,45,0.00,,,0.00,Wunderground v.1.15,2013-01-04 19:15:00,
2013-01-04 14:20:00,48.1,26.6,30.30,WNW,298,1.0,1.0,43,0.00,,,0.00,Wunderground v.1.15,2013-01-04 19:20:00,
2013-01-04 14:25:00,47.9,27.0,30.31,WNW,287,1.0,1.0,44,0.00,,,0.00,Wunderground v.1.15,2013-01-04 19:25:00,
2013-01-04 14:30:00,47.7,25.1,30.31,NW,307,1.0,1.0,41,0.00,,,0.00,Wunderground v.1.15,2013-01-04 19:30:00,
2013-01-04 14:40:00,46.6,22.9,30.30,West,264,2.0,3.0,39,0.00,,,0.00,Wunderground v.1.15,2013-01-04 19:40:00,
2013-01-04 14:45:00,46.2,24.3,30.30,WNW,288,1.0,3.0,42,0.00,,,0.00,Wunderground v.1.15,2013-01-04 19:45:00,
2013-01-04 14:50:00,46.4,25.1,30.30,WNW,294,1.0,1.0,43,0.00,,,0.00,Wunderground v.1.15,2013-01-04 19:50:00,
2013-01-04 14:55:00,47.0,25.1,30.30,WNW,294,0.0,1.0,42,0.00,,,0.00,Wunderground v.1.15,2013-01-04 19:55:00,
2013-01-04 15:00:00,47.4,24.9,30.30,WNW,296,0.0,0.0,41,0.00,,,0.00,Wunderground v.1.15,2013-01-04 20:00:00,
2013-01-04 15:06:00,47.7,26.3,30.31,WNW,283,0.0,1.0,43,0.00,,,0.00,Wunderground v.1.15,2013-01-04 20:06:00,
2013-01-04 15:10:00,47.8,25.8,30.31,WNW,284,0.0,0.0,42,0.00,,,0.00,Wunderground v.1.15,2013-01-04 20:10:00,
2013-01-04 15:15:00,47.9,26.5,30.31,WNW,284,0.0,0.0,43,0.00,,,0.00,Wunderground v.1.15,2013-01-04 20:15:00,
2013-01-04 15:20:00,48.1,26.1,30.31,WNW,286,0.0,0.0,42,0.00,,,0.00,Wunderground v.1.15,2013-01-04 20:20:00,
2013-01-04 15:25:00,48.0,26.0,30.31,WNW,286,0.0,0.0,42,0.00,,,0.00,Wunderground v.1.15,2013-01-04 20:25:00,
2013-01-04 15:30:00,47.5,25.5,30.31,West,265,1.0,1.0,42,0.00,,,0.00,Wunderground v.1.15,2013-01-04 20:30:00,
2013-01-04 15:35:00,47.3,25.9,30.32,NW,323,1.0,1.0,43,0.00,,,0.00,Wunderground v.1.15,2013-01-04 20:35:00,
2013-01-04 15:40:00,47.4,26.0,30.31,West,273,0.0,5.0,43,0.00,,,0.00,Wunderground v.1.15,2013-01-04 20:40:00,
2013-01-04 15:45:00,47.0,25.6,30.31,WNW,284,1.0,5.0,43,0.00,,,0.00,Wunderground v.1.15,2013-01-04 20:45:00,
2013-01-04 15:50:00,47.0,25.6,30.31,WNW,284,1.0,1.0,43,0.00,,,0.00,Wunderground v.1.15,2013-01-04 20:50:00,
2013-01-04 15:55:00,47.2,25.3,30.32,WNW,284,0.0,1.0,42,0.00,,,0.00,Wunderground v.1.15,2013-01-04 20:55:00,
2013-01-04 16:00:00,47.0,26.2,30.32,WNW,295,0.0,0.0,44,0.00,,,0.00,Wunderground v.1.15,2013-01-04 21:00:00,
2013-01-04 16:05:00,46.7,28.0,30.32,WNW,292,0.0,4.0,48,0.00,,,0.00,Wunderground v.1.15,2013-01-04 21:05:00,
2013-01-04 16:10:00,46.2,25.5,30.32,WNW,286,0.0,0.0,44,0.00,,,0.00,Wunderground v.1.15,2013-01-04 21:10:00,
2013-01-04 16:15:00,45.9,25.2,30.32,WNW,290,1.0,1.0,44,0.00,,,0.00,Wunderground v.1.15,2013-01-04 21:15:00,
2013-01-04 16:20:00,45.6,25.5,30.32,WNW,290,0.0,0.0,45,0.00,,,0.00,Wunderground v.1.15,2013-01-04 21:20:00,
2013-01-04 16:30:00,45.4,25.3,30.32,WNW,290,0.0,0.0,45,0.00,,,0.00,Wunderground v.1.15,2013-01-04 21:30:00,
2013-01-04 16:35:00,45.2,24.6,30.31,WNW,290,0.0,0.0,44,0.00,,,0.00,Wunderground v.1.15,2013-01-04 21:35:00,
2013-01-04 16:40:00,45.1,25.5,30.32,WNW,290,0.0,1.0,46,0.00,,,0.00,Wunderground v.1.15,2013-01-04 21:40:00,
2013-01-04 16:45:00,44.9,24.3,30.32,WNW,290,0.0,1.0,44,0.00,,,0.00,Wunderground v.1.15,2013-01-04 21:45:00,
2013-01-04 16:50:00,44.5,23.9,30.32,WNW,290,0.0,0.0,44,0.00,,,0.00,Wunderground v.1.15,2013-01-04 21:50:00,
2013-01-04 16:55:00,43.9,23.9,30.31,WNW,291,0.0,0.0,45,0.00,,,0.00,Wunderground v.1.15,2013-01-04 21:55:00,
2013-01-04 17:05:00,42.6,23.8,30.32,WNW,291,0.0,0.0,47,0.00,,,0.00,Wunderground v.1.15,2013-01-04 22:05:00,
2013-01-04 17:10:00,42.2,23.4,30.32,WNW,291,0.0,0.0,47,0.00,,,0.00,Wunderground v.1.15,2013-01-04 22:10:00,
2013-01-04 17:15:00,41.5,23.7,30.32,WNW,291,0.0,0.0,49,0.00,,,0.00,Wunderground v.1.15,2013-01-04 22:15:00,
2013-01-04 17:20:00,40.6,23.9,30.32,WNW,291,0.0,1.0,51,0.00,,,0.00,Wunderground v.1.15,2013-01-04 22:20:00,
2013-01-04 17:25:00,39.6,22.5,30.32,WNW,291,0.0,1.0,50,0.00,,,0.00,Wunderground v.1.15,2013-01-04 22:25:00,
2013-01-04 17:30:00,38.6,22.9,30.32,WNW,291,0.0,0.0,53,0.00,,,0.00,Wunderground v.1.15,2013-01-04 22:30:00,
2013-01-04 17:35:00,37.8,22.2,30.32,WNW,291,0.0,0.0,53,0.00,,,0.00,Wunderground v.1.15,2013-01-04 22:35:00,
2013-01-04 17:40:00,37.0,22.7,30.32,WNW,291,0.0,0.0,56,0.00,,,0.00,Wunderground v.1.15,2013-01-04 22:40:00,
2013-01-04 17:50:00,35.6,21.9,30.33,WNW,291,0.0,0.0,57,0.00,,,0.00,Wunderground v.1.15,2013-01-04 22:50:00,
2013-01-04 17:55:00,35.0,21.7,30.33,WNW,291,0.0,0.0,58,0.00,,,0.00,Wunderground v.1.15,2013-01-04 22:55:00,
2013-01-04 18:00:00,34.4,22.3,30.34,WNW,291,0.0,0.0,61,0.00,,,0.00,Wunderground v.1.15,2013-01-04 23:00:00,
2013-01-04 18:05:00,34.2,22.1,30.34,WNW,291,0.0,2.0,61,0.00,,,0.00,Wunderground v.1.15,2013-01-04 23:05:00,
2013-01-04 18:10:00,33.9,22.2,30.34,WNW,291,0.0,0.0,62,0.00,,,0.00,Wunderground v.1.15,2013-01-04 23:10:00,
2013-01-04 18:15:00,33.6,22.0,30.34,WNW,291,0.0,0.0,62,0.00,,,0.00,Wunderground v.1.15,2013-01-04 23:15:00,
2013-01-04 18:20:00,33.3,22.4,30.34,WNW,291,0.0,0.0,64,0.00,,,0.00,Wunderground v.1.15,2013-01-04 23:20:00,
2013-01-04 18:25:00,33.1,22.2,30.35,WNW,291,0.0,0.0,64,0.00,,,0.00,Wunderground v.1.15,2013-01-04 23:25:00,
2013-01-04 18:30:00,32.8,22.3,30.35,WNW,291,0.0,0.0,65,0.00,,,0.00,Wunderground v.1.15,2013-01-04 23:30:00,
2013-01-04 18:35:00,32.4,21.9,30.34,WNW,291,0.0,0.0,65,0.00,,,0.00,Wunderground v.1.15,2013-01-04 23:35:00,
2013-01-04 18:40:00,32.2,22.1,30.35,West,277,0.0,0.0,66,0.00,,,0.00,Wunderground v.1.15,2013-01-04 23:40:00,
2013-01-04 18:45:00,32.1,21.7,30.34,West,277,0.0,0.0,65,0.00,,,0.00,Wunderground v.1.15,2013-01-04 23:45:00,
2013-01-04 18:50:00,31.9,22.2,30.35,West,277,0.0,0.0,67,0.00,,,0.00,Wunderground v.1.15,2013-01-04 23:50:00,
2013-01-04 18:55:00,31.6,21.9,30.35,West,276,0.0,0.0,67,0.00,,,0.00,Wunderground v.1.15,2013-01-04 23:55:00,
2013-01-04 19:00:00,31.5,22.1,30.35,West,277,0.0,1.0,68,0.00,,,0.00,Wunderground v.1.15,2013-01-05 00:00:00,
2013-01-04 19:06:00,31.5,21.8,30.36,West,276,0.0,1.0,67,0.00,,,0.00,Wunderground v.1.15,2013-01-05 00:06:00,
2013-01-04 19:10:00,31.4,22.7,30.36,West,277,0.0,0.0,70,0.00,,,0.00,Wunderground v.1.15,2013-01-05 00:10:00,
2013-01-04 19:15:00,31.2,22.5,30.36,West,277,0.0,0.0,70,0.00,,,0.00,Wunderground v.1.15,2013-01-05 00:15:00,
2013-01-04 19:20:00,31.0,22.4,30.36,West,277,0.0,0.0,70,0.00,,,0.00,Wunderground v.1.15,2013-01-05 00:20:00,
2013-01-04 19:30:00,30.8,21.8,30.36,West,276,0.0,1.0,69,0.00,,,0.00,Wunderground v.1.15,2013-01-05 00:30:00,
2013-01-04 19:35:00,30.7,22.4,30.36,West,277,0.0,1.0,71,0.00,,,0.00,Wunderground v.1.15,2013-01-05 00:35:00,
2013-01-04 19:40:00,30.5,22.5,30.37,West,277,0.0,0.0,72,0.00,,,0.00,Wunderground v.1.15,2013-01-05 00:40:00,
2013-01-04 19:45:00,30.3,22.4,30.36,West,276,0.0,0.0,72,0.00,,,0.00,Wunderground v.1.15,2013-01-05 00:45:00,
2013-01-04 19:50:00,30.2,21.9,30.36,West,277,0.0,0.0,71,0.00,,,0.00,Wunderground v.1.15,2013-01-05 00:50:00,
2013-01-04 19:55:00,30.3,22.0,30.36,West,277,0.0,3.0,71,0.00,,,0.00,Wunderground v.1.15,2013-01-05 00:55:00,
2013-01-04 20:00:00,30.3,22.7,30.36,West,277,0.0,0.0,73,0.00,,,0.00,Wunderground v.1.15,2013-01-05 01:00:00,
2013-01-04 20:05:00,30.1,22.5,30.36,West,276,0.0,0.0,73,0.00,,,0.00,Wunderground v.1.15,2013-01-05 01:05:00,
2013-01-04 20:10:00,29.9,22.3,30.37,West,277,0.0,0.0,73,0.00,,,0.00,Wunderground v.1.15,2013-01-05 01:10:00,
2013-01-04 20:15:00,29.8,21.5,30.37,West,277,0.0,0.0,71,0.00,,,0.00,Wunderground v.1.15,2013-01-05 01:15:00,
2013-01-04 20:20:00,29.8,21.9,30.37,West,277,0.0,0.0,72,0.00,,,0.00,Wunderground v.1.15,2013-01-05 01:20:00,
2013-01-04 20:25:00,29.8,22.2,30.37,West,276,0.0,0.0,73,0.00,,,0.00,Wunderground v.1.15,2013-01-05 01:25:00,
2013-01-04 20:30:00,29.8,22.5,30.36,West,277,0.0,0.0,74,0.00,,,0.00,Wunderground v.1.15,2013-01-05 01:30:00,
2013-01-04 20:35:00,29.7,22.4,30.37,West,277,0.0,0.0,74,0.00,,,0.00,Wunderground v.1.15,2013-01-05 01:35:00,
2013-01-04 20:40:00,29.6,22.3,30.37,West,276,0.0,0.0,74,0.00,,,0.00,Wunderground v.1.15,2013-01-05 01:40:00,
2013-01-04 20:45:00,29.5,22.9,30.36,West,277,0.0,0.0,76,0.00,,,0.00,Wunderground v.1.15,2013-01-05 01:45:00,
2013-01-04 20:50:00,29.4,22.5,30.37,West,276,0.0,0.0,75,0.00,,,0.00,Wunderground v.1.15,2013-01-05 01:50:00,
2013-01-04 20:55:00,29.4,22.1,30.37,West,277,0.0,0.0,74,0.00,,,0.00,Wunderground v.1.15,2013-01-05 01:55:00,
2013-01-04 21:00:00,29.5,22.6,30.36,West,277,0.0,0.0,75,0.00,,,0.00,Wunderground v.1.15,2013-01-05 02:00:00,
2013-01-04 21:05:00,29.6,22.6,30.36,West,276,0.0,0.0,75,0.00,,,0.00,Wunderground v.1.15,2013-01-05 02:05:00,
2013-01-04 21:10:00,29.6,22.3,30.37,West,276,0.0,2.0,74,0.00,,,0.00,Wunderground v.1.15,2013-01-05 02:10:00,
2013-01-04 21:15:00,29.6,22.3,30.37,West,276,0.0,2.0,74,0.00,,,0.00,Wunderground v.1.15,2013-01-05 02:15:00,
2013-01-04 21:20:00,29.6,22.0,30.36,West,276,0.0,2.0,73,0.00,,,0.00,Wunderground v.1.15,2013-01-05 02:20:00,
2013-01-04 21:25:00,29.6,22.0,30.37,West,276,0.0,2.0,73,0.00,,,0.00,Wunderground v.1.15,2013-01-05 02:25:00,
2013-01-04 21:30:00,29.6,22.3,30.37,West,276,0.0,0.0,74,0.00,,,0.00,Wunderground v.1.15,2013-01-05 02:30:00,
2013-01-04 21:35:00,29.4,22.1,30.37,West,276,0.0,0.0,74,0.00,,,0.00,Wunderground v.1.15,2013-01-05 02:35:00,
2013-01-04 21:40:00,29.2,22.3,30.37,West,276,0.0,0.0,75,0.00,,,0.00,Wunderground v.1.15,2013-01-05 02:40:00,
2013-01-04 21:45:00,29.0,22.4,30.37,West,276,0.0,0.0,76,0.00,,,0.00,Wunderground v.1.15,2013-01-05 02:45:00,
2013-01-04 21:50:00,28.8,21.9,30.37,West,276,0.0,0.0,75,0.00,,,0.00,Wunderground v.1.15,2013-01-05 02:50:00,
2013-01-04 21:55:00,28.5,21.6,30.37,West,276,0.0,0.0,75,0.00,,,0.00,Wunderground v.1.15,2013-01-05 02:55:00,
2013-01-04 22:00:00,28.4,21.2,30.37,West,276,0.0,0.0,74,0.00,,,0.00,Wunderground v.1.15,2013-01-05 03:00:00,
2013-01-04 22:06:00,28.2,21.3,30.37,West,276,0.0,0.0,75,0.00,,,0.00,Wunderground v.1.15,2013-01-05 03:06:00,
2013-01-04 22:15:00,28.0,21.1,30.38,West,276,0.0,0.0,75,0.00,,,0.00,Wunderground v.1.15,2013-01-05 03:15:00,
2013-01-04 22:25:00,28.1,21.5,30.38,West,276,0.0,0.0,76,0.00,,,0.00,Wunderground v.1.15,2013-01-05 03:25:00,
2013-01-04 22:30:00,28.1,21.5,30.38,West,276,0.0,0.0,76,0.00,,,0.00,Wunderground v.1.15,2013-01-05 03:30:00,
2013-01-04 22:35:00,28.2,21.9,30.39,West,276,0.0,0.0,77,0.00,,,0.00,Wunderground v.1.15,2013-01-05 03:35:00,
2013-01-04 22:40:00,28.3,22.0,30.39,West,276,0.0,0.0,77,0.00,,,0.00,Wunderground v.1.15,2013-01-05 03:40:00,
2013-01-04 22:45:00,28.3,22.0,30.39,West,276,0.0,0.0,77,0.00,,,0.00,Wunderground v.1.15,2013-01-05 03:45:00,
2013-01-04 22:50:00,28.2,22.2,30.39,West,276,0.0,0.0,78,0.00,,,0.00,Wunderground v.1.15,2013-01-05 03:50:00,
2013-01-04 22:55:00,28.1,22.1,30.39,West,276,0.0,0.0,78,0.00,,,0.00,Wunderground v.1.15,2013-01-05 03:55:00,
2013-01-04 23:00:00,27.9,21.9,30.38,West,276,0.0,0.0,78,0.00,,,0.00,Wunderground v.1.15,2013-01-05 04:00:00,
2013-01-04 23:05:00,27.7,21.4,30.38,West,276,0.0,0.0,77,0.00,,,0.00,Wunderground v.1.15,2013-01-05 04:05:00,
2013-01-04 23:10:00,27.7,21.4,30.38,West,276,0.0,0.0,77,0.00,,,0.00,Wunderground v.1.15,2013-01-05 04:10:00,
2013-01-04 23:15:00,27.6,21.6,30.38,West,276,0.0,0.0,78,0.00,,,0.00,Wunderground v.1.15,2013-01-05 04:15:00,
2013-01-04 23:20:00,27.5,21.5,30.38,West,276,0.0,0.0,78,0.00,,,0.00,Wunderground v.1.15,2013-01-05 04:20:00,
2013-01-04 23:25:00,27.2,21.2,30.37,West,276,0.0,0.0,78,0.00,,,0.00,Wunderground v.1.15,2013-01-05 04:25:00,
2013-01-04 23:30:00,27.1,21.2,30.37,West,276,0.0,0.0,78,0.00,,,0.00,Wunderground v.1.15,2013-01-05 04:30:00,
2013-01-04 23:35:00,27.1,21.2,30.37,West,276,0.0,0.0,78,0.00,,,0.00,Wunderground v.1.15,2013-01-05 04:35:00,
2013-01-04 23:40:00,27.4,20.8,30.36,West,276,0.0,3.0,76,0.00,,,0.00,Wunderground v.1.15,2013-01-05 04:40:00,
2013-01-04 23:45:00,27.9,21.0,30.36,West,275,0.0,3.0,75,0.00,,,0.00,Wunderground v.1.15,2013-01-05 04:45:00,
2013-01-04 23:50:00,28.3,21.1,30.37,West,275,1.0,1.0,74,0.00,,,0.00,Wunderground v.1.15,2013-01-05 04:50:00,
2013-01-04 23:55:00,28.3,21.1,30.37,West,275,1.0,1.0,74,0.00,,,0.00,Wunderground v.1.15,2013-01-05 04:55:00,